Location: Tel Aviv
(32.0670°N, 34.7670°E)
Time: 13:08:34
(UTC+03:00)

Tiros 1 - Pass Details

Date: 28 January 2022
Orbit: 629 x 663 km, 48.4° (Epoch: 27 May)

Event Time Altitude Azimuth Distance (km) Brightness Sun altitude
Rises 19:37:57 0° 216° (SW) 2,969 11.0 -31.2°
Reaches altitude 10° 19:40:20 10° 211° (SSW) 2,063 10.1 -31.7°
Enters shadow 19:41:27 17° 207° (SSW) 1,652 9.5 -31.9°
Maximum altitude 19:44:58 52° 135° (SE) 821 - -32.7°
Drops below altitude 10° 19:49:37 10° 60° (ENE) 2,079 - -33.7°
Sets 19:52:01 0° 55° (NE) 2,993 - -34.2°
